Weather History for Spokane, WA

Change the Weather History Date:

Saturday, October 1, 2011

  Actual Average Record
Temperature  
Mean Temperature 65 °F 54 °F  
Max Temperature 75 °F 66 °F 86 °F (1997)
Min Temperature 55 °F 42 °F 25 °F (1950)
Degree Days  
Heating Degree Days 0 11  
Month to date heating degree days 0 11  
Since 1 July heating degree days 147 259  
Cooling Degree Days 0 0  
Month to date cooling degree days 0 0  
Year to date cooling degree days 426 449  
Growing Degree Days 14 (Base 50)    
Moisture  
Dew Point 46 °F    
Average Humidity 59    
Maximum Humidity 86    
Minimum Humidity 31    
Precipitation  
Precipitation 0.03 in 0.02 in 0.88 in (1951)
Month to date precipitation 0.03 0.02  
Year to date precipitation 11.96 10.80  
Snow  
Snow 0.00 in 0.00 in 0.00 in (2002)
Month to date snowfall 0.0 0.0  
Since 1 July snowfall 0.0 0.0  
Since 1 September snowfall 0.0 0.0  
Snow Depth 0.00 in    
Sea Level Pressure  
Sea Level Pressure 29.81 in    
Wind  
Wind Speed 10 mph (South)    
Max Wind Speed 24 mph    
Max Gust Speed 33 mph    
Visibility 10 miles    
Events Rain    
T = Trace of Precipitation, MM = Missing Value Source: NWS Daily Summary

Daily Weather History Graph

Daily Weather History Graph

Search for Another Location

Airport:

Trip Planner

Search our weather history database for the weather conditions in past years. The results will help you decide how hot, cold, wet, or windy it might be!

Date:

Astronomy

Oct. 01, 2011 Rise Set
Actual Time 6:48 AM PDT 6:29 PM PDT
Civil Twilight 6:18 AM PDT 7:00 PM PDT
Nautical Twilight 5:42 AM PDT 7:36 PM PDT
Astronomical Twilight 5:05 AM PDT 8:12 PM PDT
Moon 12:25 PM PDT (10/1) 9:06 PM PDT (10/1)
Length of Visible Light 12h 42m
Length of Day
11h 40m
Waxing Crescent, 25% of the Moon is Illuminated
Oct 1
Waxing Crescent
Oct 3
First Quarter
Oct 11
Full
Oct 19
Last Quarter
Oct 26
New

Hourly Weather History & Observations

Time (PDT) Temp. Dew Point Humidity Pressure Visibility Wind Dir Wind Speed Gust Speed Precip Events Conditions
12:53 AM 64.0 °F 46.9 °F 54% 29.75 in 10.0 mi NE 5.8 mph - N/A   Overcast
1:53 AM 64.0 °F 46.0 °F 52% 29.74 in 10.0 mi NNE 5.8 mph - N/A   Overcast
2:53 AM 61.0 °F 46.0 °F 58% 29.75 in 10.0 mi SW 3.5 mph - N/A   Mostly Cloudy
3:53 AM 63.0 °F 46.0 °F 54% 29.75 in 10.0 mi SSE 3.5 mph - N/A   Overcast
4:36 AM 60.8 °F 48.2 °F 63% 29.86 in 8.0 mi South 12.7 mph 33.4 mph 0.00 in Rain Light Rain
4:53 AM 59.0 °F 48.0 °F 67% 29.82 in 10.0 mi South 11.5 mph - 0.01 in Rain Light Rain
5:53 AM 55.9 °F 51.1 °F 84% 29.77 in 10.0 mi East 11.5 mph - 0.02 in Rain Light Rain
6:53 AM 55.0 °F 51.1 °F 86% 29.77 in 10.0 mi North 9.2 mph - 0.00 in   Overcast
7:53 AM 55.9 °F 51.1 °F 84% 29.78 in 10.0 mi ENE 6.9 mph - N/A   Mostly Cloudy
8:53 AM 60.1 °F 51.1 °F 72% 29.78 in 10.0 mi ENE 4.6 mph - N/A   Mostly Cloudy
9:53 AM 64.0 °F 52.0 °F 65% 29.79 in 10.0 mi ESE 3.5 mph - N/A   Mostly Cloudy
10:53 AM 71.1 °F 50.0 °F 47% 29.77 in 10.0 mi South 10.4 mph - N/A   Mostly Cloudy
11:53 AM 73.9 °F 48.0 °F 40% 29.77 in 10.0 mi SSW 19.6 mph 28.8 mph N/A   Mostly Cloudy
12:53 PM 69.8 °F 48.2 °F 46% 29.83 in 10.0 mi SSW 17.3 mph - N/A   Mostly Cloudy
1:53 PM 72.0 °F 44.1 °F 37% 29.78 in 10.0 mi SSW 16.1 mph - N/A   Mostly Cloudy
2:53 PM 72.0 °F 42.1 °F 34% 29.80 in 10.0 mi SW 19.6 mph - N/A   Mostly Cloudy
3:53 PM 73.0 °F 41.0 °F 31% 29.81 in 10.0 mi WSW 18.4 mph - N/A   Mostly Cloudy
4:53 PM 71.6 °F 42.8 °F 35% 29.84 in 10.0 mi WSW 11.5 mph - N/A   Mostly Cloudy
5:53 PM 68.0 °F 43.0 °F 40% 29.82 in 10.0 mi SW 6.9 mph - N/A   Mostly Cloudy
6:53 PM 64.0 °F 43.0 °F 46% 29.85 in 10.0 mi SW 9.2 mph - N/A   Mostly Cloudy
7:53 PM 63.0 °F 43.0 °F 48% 29.86 in 10.0 mi South 5.8 mph - N/A   Overcast
8:53 PM 63.0 °F 43.0 °F 48% 29.87 in 10.0 mi South 6.9 mph - N/A   Overcast
9:53 PM 62.1 °F 43.0 °F 50% 29.87 in 10.0 mi SSW 10.4 mph - 0.00 in   Overcast
10:53 PM 60.1 °F 44.1 °F 55% 29.88 in 10.0 mi SSW 10.4 mph - N/A   Overcast
11:53 PM 59.0 °F 45.0 °F 60% 29.89 in 10.0 mi SSW 10.4 mph - N/A   Overcast